    Orbital elements:
    2018 XW                                                  Earth MOID = 0.0216 AU
    Epoch 2019 Apr. 27.0 TT = JDT 2458600.5                 MPC
    M  36.15498              (2000.0)            P               Q
    n   0.26449449     Peri.  359.61182     +0.17639596     -0.97641893
    a   2.4035784      Node    80.22516     +0.90343531     +0.11040605
    e   0.5814862      Incl.    7.25552     +0.39075455     +0.18551705
    P   3.73           H   24.9           G   0.15           U   6
    Residuals in seconds of arc
    181206 T05  0.6-  0.5-    181206 104  0.0   0.0     181207 658  1.2+  1.0-
    181206 T05  0.2+  0.1+    181206 160  0.2+  0.3+    181207 658  1.1+  0.3-
    181206 T05  0.7+  1.0+    181206 160  0.2+  0.4+    181207 658  0.3+  0.5-
    181206 T05  0.7-  0.7-    181206 160  0.1+  0.1-    181207 Q62  0.6+  0.6+
    181206 T05  0.2+  0.1+    181206 160  0.2+  0.4+    181207 Q62  0.5+  0.5+
    181206 T08  0.2+  0.6+    181206 160  0.1+  0.3+    181207 Q62  1.2+  0.8+
    181206 T08  0.4-  0.3-    181206 L01  0.5-  0.3-    181207 474  0.4-  0.4-
    181206 T08  0.1-  0.1+    181206 L01  0.3-  0.2-    181207 474  0.4-  0.8-
    181206 T08  0.1+  0.2+    181206 L01  0.5-  0.0     181207 474  0.6-  0.6-
    181206 T08  0.0   0.1+    181206 L01  0.3-  0.4-    181207 474  0.7-  0.9-
    181206 T05  0.1-  0.2-    181207 X31  0.2-  0.3+    181207 474  0.4-  0.6-
    181206 T05  0.2+  0.1+    181207 X31  0.2-  0.2-    181207 E23  0.1-  0.1+
    181206 T05  0.1+  0.1-    181207 X31  1.1+  0.0     181207 E23  0.3+  0.1+
    181206 T05  0.3-  0.1-    181207 H21  0.4-  0.3-    181207 E23  0.1-  0.1+
    181206 474  0.0   0.0     181207 H21  0.6-  0.3-    181207 J69 (1.0+  2.2+)
    181206 474  0.0   0.1-    181207 H21  0.4-  0.0     181207 J69  0.6+  1.2+
    181206 474  0.2+  0.0     181207 H21  0.3-  0.2-    181207 J69  1.1+  1.1+
    181206 T05  0.3+  0.2+    181207 H36  0.8+  0.5+    181207 J69 (2.5+  0.2-)
    181206 474  0.1+  0.0     181207 H36  0.3-  0.1+    181207 J95  0.1-  0.2+
    181206 474  0.1-  0.1+    181207 H21  0.3-  0.4-    181207 J95  0.4-  0.1-
    181206 474  0.1+  0.2+    181207 H36  0.8+  0.4+    181207 J95  0.2-  0.0
    181206 474  0.3-  0.1-    181207 H36  0.3+  0.2+    181208 X31  0.4+  0.0
    181206 104  0.3-  0.3-    181207 H36  0.3+  0.1+    181208 X31  0.1+  0.3-
    181206 104  0.5-  0.2-    181207 658 (2.1+  1.0-)   181208 X31  0.5+  0.2-
    
    Ephemeris:
    2018 XW                  a,e,i = 2.40, 0.58, 7                   q = 1.0059
    Date    TT    R. A. (2000) Decl.     Delta      r     Elong.  Phase     V
    2018 11 08    01 30 14.6 -29 12 22   0.1496  1.0938   130.4    43.6    22.7
    ...
    2018 11 23    01 59 16.4 -29 25 52   0.08004 1.0336   123.3    53.0    21.4
    ...
    2018 12 01    02 58 52.9 -24 57 18   0.04490 1.0148   128.7    49.4    20.0
    ...
    2018 12 07    05 11 03.8 -06 47 10   0.02544 1.0074   150.3    28.9    18.2
    2018 12 08    05 46 19.8 -00 44 39   0.02412 1.0068   153.7    25.7    18.0
    2018 12 09    06 24 04.9 +05 46 49   0.02371 1.0063   153.9    25.5    18.0
    ...
    2018 12 15    09 28 48.3 +29 48 24   0.03765 1.0071   126.4    51.9    19.7
    ...
    2018 12 23    10 55 58.0 +34 41 35   0.07135 1.0174   116.5    59.9    21.4
    ...
    2019 01 07    11 32 07.3 +36 09 49   0.1385  1.0638   122.3    51.4    22.6
    
    A. U. Tomatic                (C) Copyright 2018 MPC           M.P.E.C. 2018-X59
    

    Read MPEC 2018-X58 Read MPEC 2018-X60


    MPEC number:

    Enter an MPEC number in one of the following forms:

    • 1997-B01 (the full form)
    • J97B01 (the packed version of the full form)
    • B01 (the abbreviated form)